Tracking 18980 objects as of 20-Feb-2018
HD Live streaming from Space Station
objects crossing your sky now

FENGYUN 1C DEB

Track FENGYUN 1C DEB now!
10-day predictions


NORAD ID: 31848
Int'l Code: 1999-025CJN
Perigee: 574.2 km
Apogee: 769.2 km
Inclination: 96.7 °
Period: 98.0 minutes
Semi major axis: 7042 km
RCS: 0.0179 m2 (small)
Launch date: May 10, 1999
Source: People's Republic of China (PRC)
Launch site: Taiyaun Space Center, China (TSC)

Note: This is SATELLITE DEBRIS
aabbcc
Your satellite tracking list
Your tracking list is empty




NASA's NSSDC Master Catalog

Two Line Element Set (TLE):
1 31848U 99025CJN 18050.24420002 +.00000636 +00000-0 +10021-3 0  9999
2 31848 096.7044 046.7628 0138438 220.4905 138.5940 14.68895880569746
Source of the keplerian elements: AFSPC